SL-16 DEB, 43370

Orbit data source: Space-Track

SL-16 DEB, 43370 is space debris in SSO originally from a launch on Mon, 10 Dec 2001 UTC launched from the Tyuratam Missile And Space Complex (TTMTR). Debris objects in space refer to the collection of defunct objects orbiting the Earth. Examples of debris include non-operational satellites, rocket bodies, and fragments generated from explosions, collisions, or faulty payload assembly.

Loading next visibility...
Identifier
43370, 2001-056P
Orbit
SSO
Country
Flag of CISCIS
Related business
Manufacturer
Unknown
Mission
Spacecraft
Bus & Motor
Unknown
Mass
Unknown
Launch date (UTC)
2001-12-10 (24 years ago)
Launch vehicle
Unknown
Launch site
Tyuratam Missile And Space Complex (TTMTR)
Object type
Payload
Rocket body
Debris
Shape & HBR
Unknown shape, 0.1 m
Radar Cross Section
Small (<0.1 m²)

Expand to show TLE details & history
Last TLE update: 2 days ago

TLE from 2 days ago
0 SL-16 DEB
1 43370U 01056P   25308.96054999  .00001701  00000-0  21596-2 0  9992
2 43370  99.3932 198.7571 0132129  65.1227 296.3585 13.61236484591880
Epoch: 2025-11-04T23:03Z
TLE epoch observation values (Epoch: 2025-11-04T23:03:11.519Z)
Latitude
0.00006°
Longitude
168.51902°
Altitude
991.588 km
Speed
7.377 km/s
True Right ascension
13h 15m 01s
True Declination
0° 00' 00"
Sunlit
Object was in daylight at epoch
Visualization orbit readout
Latitude
Unknown
Longitude
Unknown
Altitude
Unknown
Speed
Unknown
Apparent Right ascension
Unknown
Apparent Declination
Unknown
Sunlit
N/A
Visualization observer readout
Local Sidereal Time
15:54:18
Azimuth
Unknown
Elevation
Unknown
Doppler factor
Unknown
Orbital elements
Apogee altitude
1,126.335 km
Perigee altitude
930.609 km
Semi-major axis
7,406.609 km
Eccentricity
0.01321
Inclination
99.3932°
RAAN
198.7571°
Arg. of periapsis
65.1227°
True anomaly
294.99194°
Mean anomaly
296.3585°
Eccentric anomaly
295.67621°
Mean motion
3.40498 °/min
Orbital period
105.73 mins
BSTAR
0.0021596
Loading maneuver chart data...
Computing Atmospheric mass density...
Loading historical data...
Loading historical data...
Loading historical data...
Loading historical data...
Loading historical data...
Loading historical data...
Loading historical data...

Documentation

Showing up to 5 results
|